Vorticity
12 12 12 8 5 7 9 13 12 10 15 12 9 7 4 5 6 16 35 31 8 4 13 -3 -5 10 8 21 29 5 -3 14 14 4 12 11 3 12 12 9 12 11 11 4 1 6 7 12 8 5 8 8 8 7 10 10 6 11 14 13 10 10 14 3 1 17 25 23 13 6 3 1 9 12 6 6 8 8 6 6 8 9 9 8 7 8
12 11 13 12 9 10 11 12 11 11 14 10 9 6 2 4 1 18 36 18 -1 2 -2 -13 -3 -5 -11 26 35 -1 -10 10 21 7 1 17 21 17 14 12 13 7 4 2 3 9 8 10 10 5 6 8 7 7 7 7 4 3 7 10 9 18 17 3 15 28 16 12 8 3 7 8 11 10 8 12 9 7 7 7 8 8 8 8 7 7
12 11 12 14 12 14 11 12 14 14 16 12 8 5 11 16 13 32 27 -14 -12 10 6 3 11 -2 -3 34 31 -0 -2 -2 5 5 -8 3 8 -1 -1 7 14 5 -5 0 5 8 4 3 6 5 7 8 7 9 6 4 7 7 6 6 7 14 12 11 21 5 -15 -3 4 8 15 10 9 11 10 10 6 6 7 6 7 7 7 6 5 6
13 12 12 12 13 14 10 12 12 12 14 8 6 11 21 20 7 22 11 -27 -7 19 13 8 8 7 19 44 28 -4 3 1 -7 3 -2 -5 -8 -10 -0 4 5 -2 -8 3 9 6 4 3 5 4 6 7 6 9 6 5 11 11 8 7 10 14 10 7 6 -6 -3 9 5 9 17 12 10 9 5 5 5 6 5 5 6 5 6 5 5 7
11 13 13 11 10 12 10 12 10 12 14 6 13 22 21 13 -5 3 4 -6 26 38 16 5 -4 -5 6 27 29 -1 -4 5 -5 -3 -3 -4 -3 -1 7 1 -9 -7 -3 7 9 3 4 5 5 5 7 9 9 9 8 8 9 9 13 13 10 12 10 7 8 8 11 9 2 7 14 13 10 4 3 5 5 5 4 4 5 5 5 5 7 7
11 11 12 12 9 10 8 7 8 14 17 10 20 31 23 12 -6 -2 5 -8 15 32 16 13 5 -2 1 9 24 14 3 7 4 3 0 6 20 17 15 12 1 3 7 8 9 6 4 5 7 10 11 10 9 9 8 8 8 10 14 13 9 6 5 6 8 10 12 10 7 7 10 12 7 3 5 5 3 3 2 5 7 6 5 5 7 8
12 12 11 12 10 10 7 9 15 15 17 13 18 29 22 10 -7 -2 13 -14 -12 15 3 -1 1 -3 2 -6 -7 3 5 8 8 6 2 8 21 12 2 5 2 7 13 9 9 6 3 10 15 16 14 9 12 16 13 5 4 11 15 16 14 8 8 12 10 9 12 9 7 9 11 10 6 4 3 1 2 3 4 7 7 5 7 7 9 9
12 12 12 10 5 11 9 15 28 19 16 13 16 28 10 -2 -5 -1 20 -2 -18 15 16 6 7 -1 2 -4 -9 -1 -2 4 13 11 7 4 3 -4 -14 -11 -2 10 15 9 10 8 5 13 14 12 11 12 14 12 10 10 5 7 14 14 9 4 8 14 11 7 6 6 11 15 13 12 11 6 2 3 7 7 8 7 7 8 9 10 10 9
12 9 10 7 0 7 3 7 22 14 16 16 16 31 7 -13 -5 -7 15 14 -13 6 20 14 15 12 15 16 28 38 11 -1 12 9 1 -6 -7 -1 -5 -5 4 14 13 7 8 8 6 6 5 10 14 21 29 15 3 11 13 14 17 11 7 10 12 11 9 9 8 9 12 10 15 17 10 6 12 17 13 9 9 9 10 10 9 10 10 9
8 7 7 7 4 7 3 8 20 9 14 18 11 27 20 3 9 -5 -4 8 -2 5 15 15 19 13 8 11 30 45 22 7 18 13 -1 -4 3 11 11 13 14 10 5 3 6 7 7 5 6 15 9 7 25 29 20 17 15 15 11 7 9 8 9 15 21 22 16 15 15 16 23 10 -12 -4 13 18 15 10 9 10 11 9 7 9 8 7
6 10 7 6 8 11 6 5 16 12 11 17 11 20 26 17 19 9 -8 -10 -6 3 8 15 27 20 12 20 22 14 7 11 16 9 -1 7 20 18 14 20 17 9 6 8 14 14 11 11 12 15 8 -5 -9 -2 15 23 20 14 6 8 9 1 11 26 27 24 17 14 16 20 19 -4 -21 -4 5 2 6 10 11 11 9 8 6 6 6 4
5 5 4 6 11 18 16 2 7 16 11 16 19 17 18 11 10 15 9 -2 -10 -8 -4 -1 8 8 9 27 25 1 -2 9 6 -0 -3 2 12 9 9 18 19 17 16 13 15 15 12 13 12 11 16 16 3 -4 7 11 9 10 7 8 5 1 13 11 -2 6 11 6 7 9 8 -1 -2 10 10 4 6 12 15 12 9 7 5 6 5 3
9 2 -1 3 6 13 20 8 5 13 5 7 14 9 7 2 -1 10 22 20 3 -13 -12 -8 -3 3 4 15 20 5 -0 7 7 8 10 9 7 5 8 16 18 18 13 8 8 10 10 9 10 15 17 15 14 9 4 3 10 20 21 17 11 14 22 6 -7 8 12 2 3 6 5 5 8 12 9 6 10 15 17 12 9 8 5 6 5 4
14 10 4 5 4 6 15 13 10 15 8 4 6 4 5 0 -4 7 19 25 21 5 -2 2 7 12 11 9 11 5 -2 1 7 8 11 14 11 9 10 9 11 12 7 5 6 7 11 11 11 16 12 7 11 10 6 10 12 14 23 27 18 11 10 4 4 12 11 8 10 10 7 5 5 5 2 2 6 11 13 12 9 5 4 6 5 6
9 10 7 7 7 7 12 15 18 19 10 13 22 15 6 2 3 10 10 9 17 18 14 16 17 13 11 9 8 9 3 1 7 6 1 2 3 12 17 8 6 10 7 7 7 5 9 13 14 11 7 8 12 11 11 10 -3 -9 5 17 13 1 -8 -6 3 7 9 12 11 9 8 6 5 5 8 15 14 8 9 11 5 -0 4 11 10 7
7 9 7 7 8 8 9 10 16 14 0 7 26 23 10 4 6 10 9 3 8 14 10 8 10 6 4 7 7 9 9 2 2 3 -0 -1 -0 7 14 11 8 9 8 8 11 12 12 12 12 11 12 11 6 4 7 10 8 4 5 7 10 9 5 7 11 11 10 9 7 7 7 6 6 3 6 15 17 8 7 9 2 -3 -0 8 13 9
6 8 9 11 11 13 13 9 10 10 2 1 7 13 20 15 4 6 13 9 3 7 11 7 6 4 4 7 7 9 10 6 4 4 1 2 -2 -5 2 10 12 11 12 16 18 18 17 14 8 8 14 11 5 6 7 9 13 12 9 11 15 15 13 14 12 9 8 5 4 5 8 13 17 14 8 11 14 8 5 6 5 0 -11 -8 11 12
4 5 8 8 6 10 16 16 14 9 4 9 6 5 16 18 6 5 12 13 6 5 9 6 4 7 8 10 12 14 14 11 10 9 7 9 6 -0 1 3 3 7 14 19 18 13 13 15 10 7 12 14 12 10 8 7 8 7 6 6 11 14 9 7 8 8 8 8 6 5 5 11 20 23 17 16 17 13 9 8 9 5 -9 -8 12 14
3 4 7 4 -1 5 12 14 17 12 3 6 9 5 8 9 5 5 6 8 9 8 8 6 7 10 10 6 4 10 16 11 5 4 6 9 10 9 7 4 3 6 11 13 10 6 6 7 8 8 12 20 20 8 2 3 4 6 1 -8 2 21 15 3 4 9 9 7 2 -3 -6 -2 10 19 17 14 12 7 5 7 7 7 4 9 19 14
4 1 6 8 1 0 10 12 11 14 11 6 4 6 12 9 2 1 4 6 7 9 9 9 10 7 7 8 4 8 18 17 14 16 14 10 10 9 7 6 6 7 8 9 8 9 8 5 7 7 3 4 3 -6 -4 3 5 9 4 -9 -0 18 16 4 1 5 11 9 -0 -5 -4 -1 4 10 10 4 -2 -4 -0 7 12 12 14 18 19 12
8 3 2 10 7 -2 5 11 8 9 12 11 7 2 7 14 11 5 2 3 6 10 10 12 14 8 5 10 8 5 6 4 8 17 16 10 9 10 11 12 12 13 14 11 5 3 1 0 4 2 -5 -5 -3 -2 3 5 4 7 6 2 5 9 8 6 4 6 10 10 7 8 11 13 10 8 7 -0 -5 -2 2 7 16 19 20 20 13 7
11 11 5 6 8 5 6 5 6 8 5 5 6 2 1 9 15 14 7 0 -0 3 4 7 12 12 6 6 8 9 7 -0 -1 5 6 5 5 6 12 17 17 20 19 12 6 7 10 11 10 3 1 4 3 3 4 2 4 10 11 9 5 5 8 10 10 11 8 5 8 11 14 19 19 12 5 1 2 5 5 11 23 25 22 16 6 4
5 11 13 9 1 5 13 8 1 7 8 2 -2 1 7 7 8 12 14 11 5 1 0 1 5 8 6 3 -1 1 5 3 1 1 0 4 9 8 7 7 7 11 16 16 16 21 26 22 11 5 12 17 11 3 2 4 8 8 8 7 6 12 19 16 13 14 14 15 12 10 11 14 19 19 13 9 11 12 12 17 23 21 15 9 3 3
3 2 11 19 7 1 13 15 6 6 14 14 4 -0 5 8 8 6 6 12 14 12 11 7 3 2 4 7 5 1 3 7 5 6 8 10 9 7 4 3 3 7 15 18 11 6 5 -1 -4 5 15 16 12 8 5 7 7 2 2 7 10 13 12 9 12 14 19 23 14 8 13 11 9 14 16 17 15 16 20 20 16 13 9 6 3 3
8 -1 1 16 17 7 5 4 4 5 7 9 9 4 -2 -0 7 9 5 4 4 6 10 6 3 5 1 1 4 2 -0 2 3 6 12 12 6 6 5 1 9 17 14 6 4 12 19 14 8 11 13 11 14 18 16 12 12 11 11 10 6 8 10 10 11 7 8 15 10 10 21 19 12 9 8 14 20 18 18 13 7 8 8 5 2 1
12 2 -1 8 16 19 12 -0 -6 -3 0 4 7 6 0 -4 -1 6 12 11 4 3 9 7 9 20 18 8 8 6 -0 1 3 -0 0 2 2 7 8 5 15 26 18 10 15 23 26 23 18 13 15 21 22 18 13 12 14 15 17 20 20 24 24 14 8 4 6 15 13 9 14 18 20 17 5 8 19 15 9 5 2 5 7 6 4 4
15 8 3 3 6 14 20 16 4 -6 -3 8 11 9 9 4 -3 -3 6 13 13 11 12 9 1 3 8 7 9 11 8 8 8 1 -0 5 5 8 16 16 11 7 9 20 28 23 18 21 17 6 9 17 13 7 7 9 16 19 20 22 26 28 19 6 9 16 16 20 19 12 8 9 16 20 9 5 9 7 7 8 5 5 5 5 7 6
14 16 11 5 4 5 8 15 18 11 6 9 6 2 6 6 -1 -3 -2 1 8 10 11 9 -1 -9 -7 -3 -1 2 4 7 10 9 10 13 14 17 21 20 18 21 27 25 16 8 8 11 4 -2 4 7 1 6 11 5 11 22 17 6 10 18 10 -0 9 16 10 13 21 18 12 8 14 21 15 4 -3 0 12 13 7 9 12 14 19 17
12 18 10 -0 3 10 10 9 13 16 16 16 8 -1 4 8 3 1 -0 -3 -1 3 6 9 9 6 3 3 3 4 3 2 3 8 8 7 12 13 8 10 23 31 27 12 -4 -11 -9 -4 -1 5 11 7 -1 6 14 10 11 11 -4 -12 -0 10 3 -3 5 11 10 14 18 14 8 9 16 19 17 9 -2 3 20 21 13 11 7 8 17 20
16 26 22 9 4 7 10 12 10 7 8 14 13 9 16 20 10 -0 -1 -1 -5 -6 -2 2 7 11 12 12 13 15 18 14 6 4 4 4 7 4 0 13 22 10 -4 -5 -4 -5 -1 5 8 7 7 8 7 7 8 11 13 2 -10 -4 11 14 10 8 8 7 10 12 11 10 9 12 13 9 8 7 3 9 15 13 14 13 3 1 7 11
12 18 21 22 17 8 4 7 9 8 5 7 9 9 15 20 16 7 3 2 -2 -5 -3 -1 1 4 7 7 6 9 19 20 13 10 8 7 10 7 5 13 10 -3 -5 5 10 10 10 11 10 7 5 4 4 4 5 8 8 3 2 7 10 5 0 2 5 5 5 8 15 15 7 7 12 10 7 6 13 27 23 7 10 15 8 6 7 5
24 17 9 12 20 19 14 11 11 12 12 14 15 13 12 12 12 13 12 12 12 7 1 1 5 7 6 5 1 -2 1 5 5 7 7 6 8 7 8 10 4 -2 4 12 15 15 11 6 6 7 4 1 1 2 4 5 5 8 10 9 7 5 1 1 5 3 -4 1 12 2 -13 -2 14 15 13 12 12 18 9 -4 2 7 3 5 4 2
6 14 10 6 9 10 11 14 16 15 13 13 15 17 19 17 14 14 14 15 18 16 8 4 10 16 20 25 21 7 -3 -3 0 2 1 1 0 -2 1 6 7 10 13 14 14 13 10 6 4 3 3 4 4 -0 -2 -0 2 5 7 7 6 5 5 5 4 -2 -4 4 11 -1 -11 -0 4 -7 -5 -1 -8 -12 -12 -9 0 4 3 5 3 1
-18 2 9 7 10 9 4 3 5 8 8 7 9 11 13 16 18 20 19 14 9 7 3 2 7 9 6 14 26 25 12 3 2 4 5 3 1 -0 0 -0 1 6 8 6 3 2 4 5 3 4 5 5 4 3 2 3 1 -1 0 4 4 1 2 4 2 2 4 6 7 7 6 9 4 -4 -2 -1 -5 -3 2 3 3 3 3 3 3 4
-0 10 9 9 16 18 18 15 10 9 11 11 12 14 15 15 14 17 21 21 16 10 3 -1 -1 -7 -15 -5 17 27 21 12 8 9 12 14 12 10 9 8 8 11 10 7 3 1 2 2 2 3 5 6 7 5 3 3 5 4 2 2 4 1 -0 1 2 3 3 1 1 5 7 7 7 8 11 10 7 8 7 1 -1 -1 0 1 3 5
10 15 11 6 4 2 9 20 18 14 17 15 11 11 14 15 14 14 16 19 22 21 17 12 7 -2 -5 4 15 17 14 13 9 5 6 9 8 7 7 5 4 4 6 8 9 8 8 7 5 2 -0 2 5 5 5 8 10 9 7 6 7 5 3 3 3 1 0 0 0 -2 -3 -0 0 -1 1 4 5 5 3 -2 -4 -2 1 2 4 5
14 18 17 12 5 -3 -3 1 -3 -3 9 16 13 10 10 11 14 16 18 20 22 21 18 18 20 19 13 3 -3 2 11 13 7 2 1 1 1 5 9 9 7 5 4 3 1 -0 -0 1 3 3 2 1 1 1 2 3 2 1 1 2 2 2 5 6 5 5 5 4 3 1 1 4 6 5 4 3 4 7 7 4 2 4 4 3 5 5
8 11 12 10 8 5 4 3 -1 -3 3 10 12 14 11 7 5 5 6 11 15 15 15 16 19 26 29 18 -2 -8 -1 5 7 9 6 3 1 2 3 7 9 9 10 11 9 3 -0 1 3 4 4 3 2 3 2 2 3 2 1 3 4 3 5 9 9 7 7 2 -0 1 4 6 11 14 12 11 9 9 8 7 5 3 -0 -1 2 2
7 6 10 15 17 15 13 13 12 10 10 9 11 14 13 13 15 15 11 10 10 7 9 12 13 16 26 31 23 6 -6 -7 -1 4 5 6 7 5 6 13 17 16 15 17 16 11 6 4 4 3 3 4 4 3 2 3 8 8 4 9 16 10 4 6 8 5 4 4 4 5 6 7 10 9 7 9 10 8 6 5 3 1 1 1 1 2
12 10 11 14 17 18 17 16 14 12 11 7 6 11 14 15 19 20 19 21 22 18 13 10 10 12 14 21 29 29 23 16 11 6 3 2 3 2 0 0 1 1 2 3 2 3 3 4 3 4 7 11 14 14 11 11 16 19 15 17 25 25 18 13 10 5 4 6 8 8 7 7 8 8 6 8 10 8 4 2 2 3 5 5 5 7
13 18 15 8 5 5 8 12 13 12 11 7 3 2 -1 -4 -5 -6 -1 8 13 17 21 19 16 15 15 15 19 23 27 31 32 30 25 19 16 13 6 -0 -4 -4 -3 -2 -1 1 4 5 6 7 7 7 8 11 12 6 1 -0 1 2 8 15 18 18 17 15 13 12 12 13 13 11 10 10 10 11 11 8 5 6 8 10 12 13 13 11
10 9 3 0 6 8 7 8 8 5 7 10 11 8 3 -0 -2 -7 -6 1 2 2 10 19 21 18 14 13 13 11 10 13 18 23 26 25 24 22 19 16 14 11 8 6 7 7 7 7 9 10 8 3 -2 -2 2 1 -4 -6 -3 -3 -4 -2 0 2 3 5 9 12 13 13 14 15 16 17 18 19 18 13 11 12 12 11 10 9 7 4
14 8 -2 0 11 15 14 15 14 11 11 11 11 11 11 12 14 10 5 6 8 4 -0 0 4 5 3 5 8 8 6 6 8 10 12 13 14 16 17 19 20 20 20 17 14 12 11 11 11 10 10 8 7 6 8 9 10 11 12 11 10 10 8 5 2 0 1 3 3 2 1 2 4 6 7 9 8 3 -2 -5 -6 -5 -3 -2 -1 -1
11 12 9 7 9 9 9 12 13 15 19 19 15 10 5 1 5 10 10 10 14 14 8 2 1 2 2 3 7 8 7 6 5 6 7 8 9 9 10 10 10 13 15 17 16 16 15 14 15 14 13 12 12 11 11 12 13 14 15 15 15 14 14 13 12 9 7 6 6 6 5 4 3 2 1 1 0 -3 -7 -9 -9 -6 -4 -1 2 3
6 7 7 7 8 8 8 8 7 5 8 12 14 13 10 6 6 7 7 8 11 11 8 6 5 5 5 4 4 6 7 7 5 5 5 6 7 8 9 9 9 8 8 9 9 10 11 12 12 12 12 13 13 12 11 10 8 6 7 8 8 8 9 10 9 8 7 7 6 6 7 8 8 8 8 8 8 7 5 5 5 4 2 3 4 4
6 6 5 6 6 6 7 8 8 5 3 4 6 6 7 9 12 13 13 13 12 8 4 4 5 5 6 7 7 7 7 7 8 9 7 5 4 6 8 9 10 10 10 9 9 8 8 8 8 8 8 9 10 10 10 10 9 6 4 3 2 2 3 4 5 5 5 4 4 4 5 5 6 7 8 8 8 8 7 7 7 7 6 5 5 5
11 13 12 11 10 9 9 9 8 7 5 4 5 5 3 2 2 3 5 7 9 8 9 10 11 9 7 8 10 11 11 10 10 11 11 9 8 9 12 15 15 13 12 13 13 12 11 10 10 10 10 8 8 8 8 8 7 6 5 4 3 2 2 2 1 1 1 2 4 5 6 7 8 9 9 9 9 9 9 9 8 8 7 7 7 8
14 15 16 17 16 16 16 16 14 13 12 9 8 9 10 10 7 4 1 1 1 3 6 7 8 9 9 9 9 10 10 9 7 7 9 10 11 14 16 16 13 8 5 6 6 5 5 6 6 5 5 5 5 5 3 3 2 1 2 2 2 2 2 2 2 3 5 7 8 9 10 11 10 10 10 10 10 10 10 10 10 11 10 10 11 12
12 11 11 11 11 11 12 14 16 18 18 18 17 15 15 14 14 14 11 8 6 4 4 4 4 4 4 4 5 6 8 8 6 4 3 1 -1 -2 -2 -2 -2 -4 -7 -6 -2 1 3 3 3 3 3 3 4 3 3 4 4 5 5 5 5 5 5 5 7 8 8 9 9 10 9 9 8 9 9 8 8 9 10 10 11 12 14 16 17 17
11 11 11 10 10 11 11 13 13 14 16 18 20 21 21 21 21 21 20 19 18 15 11 9 7 6 4 2 1 1 3 5 6 5 3 1 -1 -3 -4 -4 -2 -3 -4 -4 -1 4 9 10 9 9 9 8 8 9 9 8 8 8 8 7 8 8 8 7 7 7 7 7 6 5 5 5 6 6 6 6 7 8 9 11 12 13 15 17 18 19
14 14 13 13 13 14 14 14 13 12 12 13 15 16 17 18 20 23 24 23 24 24 22 19 16 14 13 12 9 6 4 5 7 8 6 4 4 6 7 7 6 4 4 5 5 7 9 10 10 11 11 10 10 10 9 10 10 10 10 10 11 11 11 11 10 10 10 9 9 11 12 13 13 15 16 18 19 19 19 21 23 23 22 21 20 21
Height
5721 5723 5725 5727 5729 5730 5731 5732 5734 5736 5737 5737 5738 5738 5739 5741 5743 5746 5750 5753 5753 5753 5756 5758 5758 5761 5765 5766 5768 5769 5768 5769 5770 5769 5769 5770 5771 5772 5773 5775 5777 5776 5778 5779 5779 5781 5784 5784 5784 5785 5785 5785 5785 5786 5787 5785 5784 5784 5782 5782 5784 5786 5787 5788 5789 5790 5790 5791 5792 5793 5794 5795 5796 5797 5797 5797 5798 5798 5798 5799 5799 5800 5801 5801 5801 5801
5719 5721 5724 5726 5727 5727 5728 5729 5731 5732 5734 5734 5735 5735 5736 5738 5741 5744 5748 5751 5753 5753 5754 5757 5758 5759 5762 5765 5767 5767 5766 5767 5768 5768 5768 5769 5770 5771 5772 5773 5775 5775 5777 5778 5778 5779 5781 5781 5782 5783 5783 5784 5784 5785 5785 5784 5784 5784 5782 5781 5783 5785 5787 5788 5789 5789 5790 5790 5792 5793 5794 5794 5794 5795 5796 5797 5797 5797 5798 5798 5799 5799 5800 5800 5800 5800
5718 5720 5722 5723 5723 5724 5726 5727 5728 5730 5731 5732 5733 5734 5736 5739 5742 5745 5747 5749 5752 5753 5753 5756 5758 5759 5760 5763 5765 5765 5765 5766 5767 5768 5767 5768 5769 5770 5770 5771 5773 5775 5776 5777 5776 5777 5778 5779 5779 5779 5780 5780 5781 5782 5783 5783 5784 5783 5781 5780 5781 5783 5785 5787 5789 5789 5790 5790 5791 5792 5792 5792 5793 5794 5795 5796 5797 5797 5797 5798 5798 5798 5798 5798 5799 5799
5716 5718 5718 5719 5720 5722 5723 5724 5726 5727 5728 5729 5731 5734 5737 5740 5741 5743 5746 5748 5749 5751 5752 5754 5757 5758 5758 5760 5762 5763 5764 5765 5767 5768 5767 5766 5766 5767 5767 5768 5772 5774 5776 5776 5775 5774 5775 5775 5775 5775 5776 5777 5778 5780 5782 5783 5783 5781 5780 5779 5779 5780 5782 5785 5788 5789 5789 5790 5790 5791 5791 5792 5793 5794 5795 5796 5796 5797 5797 5797 5797 5797 5797 5797 5798 5798
5714 5714 5715 5717 5718 5720 5721 5722 5724 5725 5726 5727 5730 5733 5736 5738 5738 5739 5743 5745 5747 5749 5751 5753 5754 5755 5756 5757 5759 5761 5762 5763 5765 5766 5766 5765 5764 5763 5763 5766 5770 5772 5774 5774 5773 5771 5771 5771 5771 5773 5774 5775 5777 5779 5781 5782 5781 5780 5780 5780 5779 5778 5779 5781 5784 5785 5787 5788 5789 5790 5791 5791 5792 5793 5794 5795 5795 5796 5797 5797 5797 5796 5796 5796 5797 5797
5712 5712 5714 5715 5716 5718 5719 5720 5722 5723 5725 5726 5728 5732 5735 5737 5737 5738 5739 5741 5744 5748 5749 5750 5752 5752 5754 5755 5757 5759 5760 5761 5763 5764 5765 5764 5763 5760 5760 5764 5768 5770 5771 5771 5769 5766 5766 5767 5768 5772 5774 5775 5776 5778 5779 5780 5779 5779 5779 5779 5778 5778 5778 5779 5780 5782 5784 5786 5787 5789 5790 5790 5791 5792 5793 5793 5794 5795 5796 5797 5796 5796 5796 5796 5796 5796
5710 5710 5712 5713 5715 5716 5717 5718 5720 5721 5723 5725 5727 5731 5734 5736 5736 5737 5738 5739 5742 5745 5746 5747 5750 5751 5752 5753 5756 5758 5759 5760 5760 5761 5761 5761 5760 5760 5760 5764 5766 5766 5767 5767 5764 5762 5764 5765 5767 5771 5773 5773 5773 5775 5776 5778 5779 5779 5778 5777 5776 5776 5777 5777 5778 5780 5782 5783 5785 5786 5788 5789 5789 5790 5791 5792 5793 5794 5795 5795 5795 5794 5794 5795 5795 5795
5708 5709 5710 5711 5713 5714 5716 5717 5718 5719 5721 5723 5726 5728 5732 5734 5736 5737 5737 5738 5739 5741 5742 5743 5747 5749 5749 5750 5754 5756 5757 5758 5759 5759 5757 5757 5758 5759 5760 5762 5761 5761 5763 5764 5761 5760 5762 5764 5766 5769 5769 5769 5771 5772 5774 5776 5777 5777 5776 5775 5775 5775 5776 5776 5777 5778 5780 5781 5783 5784 5785 5786 5787 5789 5789 5790 5791 5792 5793 5793 5793 5793 5793 5793 5793 5794
5706 5707 5708 5710 5711 5712 5715 5716 5717 5718 5719 5722 5724 5725 5729 5731 5733 5735 5736 5737 5737 5738 5739 5740 5742 5744 5746 5749 5751 5752 5754 5756 5757 5756 5755 5754 5755 5757 5758 5758 5757 5759 5761 5761 5760 5759 5760 5762 5765 5766 5766 5767 5769 5771 5773 5774 5774 5775 5775 5775 5776 5776 5776 5776 5777 5778 5779 5780 5781 5782 5783 5785 5786 5787 5788 5788 5789 5790 5790 5791 5791 5791 5791 5792 5792 5793
5704 5706 5707 5708 5710 5712 5714 5715 5716 5717 5718 5720 5721 5723 5725 5727 5730 5733 5734 5735 5735 5735 5737 5739 5740 5741 5743 5746 5748 5749 5751 5754 5755 5754 5753 5753 5753 5754 5754 5754 5755 5757 5758 5758 5758 5757 5759 5761 5762 5763 5764 5766 5767 5769 5771 5772 5773 5774 5775 5775 5776 5776 5776 5776 5776 5777 5778 5779 5780 5781 5782 5784 5785 5786 5787 5787 5787 5788 5788 5789 5789 5790 5790 5790 5791 5791
5703 5704 5705 5706 5708 5710 5712 5713 5714 5716 5717 5718 5719 5721 5724 5726 5728 5730 5732 5733 5732 5733 5736 5737 5738 5739 5741 5744 5746 5746 5748 5751 5752 5751 5750 5750 5751 5752 5751 5751 5754 5755 5755 5757 5757 5757 5758 5759 5759 5760 5763 5765 5767 5768 5769 5771 5772 5773 5773 5774 5774 5775 5775 5776 5776 5777 5778 5779 5780 5781 5782 5783 5784 5785 5785 5785 5785 5786 5786 5787 5788 5788 5788 5789 5789 5789
5701 5702 5702 5704 5706 5708 5710 5711 5713 5714 5715 5717 5718 5721 5723 5725 5726 5727 5729 5730 5730 5731 5734 5736 5737 5737 5739 5743 5744 5743 5745 5748 5749 5748 5747 5748 5750 5749 5748 5750 5753 5753 5753 5755 5755 5755 5756 5756 5756 5759 5762 5764 5766 5766 5767 5769 5770 5771 5771 5772 5773 5774 5775 5776 5776 5778 5779 5780 5781 5781 5782 5783 5783 5783 5784 5784 5784 5785 5785 5786 5787 5787 5787 5787 5787 5787
5699 5700 5702 5704 5705 5707 5708 5709 5711 5713 5713 5716 5718 5719 5720 5722 5724 5725 5726 5727 5728 5730 5732 5734 5737 5736 5738 5740 5740 5740 5742 5744 5745 5745 5744 5745 5746 5746 5746 5749 5751 5750 5751 5752 5753 5753 5754 5754 5755 5757 5760 5762 5763 5765 5766 5767 5768 5769 5769 5770 5771 5773 5774 5775 5776 5777 5778 5779 5780 5781 5782 5782 5782 5782 5782 5782 5783 5783 5783 5784 5785 5785 5785 5785 5784 5784
5698 5699 5700 5702 5704 5705 5706 5708 5710 5711 5712 5714 5716 5717 5718 5720 5721 5723 5724 5725 5726 5729 5731 5734 5735 5735 5736 5737 5737 5737 5739 5740 5741 5741 5742 5743 5743 5744 5746 5747 5747 5748 5749 5750 5751 5752 5752 5752 5753 5755 5759 5761 5762 5763 5764 5766 5766 5767 5768 5769 5770 5772 5773 5774 5775 5776 5777 5778 5779 5780 5781 5781 5781 5781 5781 5781 5781 5781 5781 5782 5782 5783 5783 5783 5782 5782
5695 5696 5698 5701 5703 5704 5705 5707 5709 5710 5711 5713 5714 5716 5717 5718 5720 5721 5723 5724 5726 5727 5730 5732 5732 5731 5732 5733 5733 5735 5737 5737 5738 5738 5739 5740 5741 5742 5743 5744 5745 5746 5748 5749 5750 5751 5751 5752 5752 5754 5758 5759 5760 5761 5762 5764 5765 5766 5767 5769 5770 5772 5773 5773 5774 5775 5776 5777 5778 5779 5779 5779 5779 5779 5779 5779 5779 5779 5779 5779 5780 5780 5781 5781 5780 5780
5693 5695 5698 5700 5701 5702 5704 5706 5707 5708 5710 5711 5712 5714 5715 5717 5718 5720 5721 5723 5724 5725 5728 5729 5728 5728 5729 5730 5731 5733 5734 5735 5735 5735 5735 5737 5738 5740 5741 5742 5743 5745 5747 5748 5749 5750 5752 5752 5752 5754 5756 5758 5759 5759 5760 5762 5763 5765 5766 5768 5769 5770 5772 5772 5773 5774 5775 5776 5777 5778 5778 5777 5777 5776 5776 5776 5776 5777 5777 5777 5777 5778 5778 5779 5778 5778
5692 5694 5697 5698 5699 5701 5702 5704 5705 5706 5708 5709 5710 5712 5714 5716 5717 5718 5720 5721 5722 5723 5725 5726 5726 5727 5728 5728 5728 5730 5732 5733 5732 5733 5734 5736 5738 5739 5740 5742 5743 5744 5745 5746 5747 5749 5751 5751 5751 5752 5754 5756 5757 5758 5759 5760 5762 5763 5765 5766 5767 5768 5770 5771 5772 5773 5774 5775 5775 5775 5775 5775 5774 5773 5773 5774 5774 5774 5775 5775 5775 5776 5776 5776 5776 5776
5690 5693 5695 5696 5697 5698 5700 5702 5703 5705 5707 5708 5709 5711 5713 5715 5715 5716 5717 5718 5719 5721 5723 5724 5725 5726 5727 5727 5726 5728 5730 5730 5730 5731 5733 5735 5737 5738 5739 5741 5742 5742 5743 5743 5745 5746 5748 5748 5749 5750 5752 5754 5756 5757 5757 5758 5760 5762 5764 5765 5766 5767 5768 5769 5771 5771 5772 5772 5772 5773 5773 5772 5771 5770 5770 5771 5771 5772 5772 5773 5773 5773 5774 5774 5774 5774
5688 5690 5692 5694 5695 5696 5697 5700 5701 5703 5705 5707 5708 5710 5711 5712 5713 5714 5714 5715 5717 5719 5721 5722 5722 5723 5725 5725 5724 5726 5728 5728 5728 5730 5732 5733 5735 5736 5737 5738 5740 5740 5740 5741 5742 5743 5743 5744 5746 5748 5750 5752 5753 5754 5756 5757 5759 5760 5762 5763 5765 5766 5766 5767 5768 5769 5769 5769 5769 5770 5770 5769 5768 5768 5767 5768 5768 5769 5770 5770 5770 5771 5771 5772 5772 5772
5684 5686 5689 5691 5693 5694 5695 5697 5700 5702 5704 5706 5707 5707 5709 5710 5710 5711 5712 5713 5715 5717 5718 5719 5719 5720 5721 5722 5723 5725 5726 5726 5727 5729 5730 5731 5732 5734 5735 5736 5737 5737 5738 5739 5739 5740 5740 5741 5743 5746 5748 5750 5751 5752 5754 5755 5757 5758 5759 5761 5761 5762 5763 5764 5764 5764 5764 5765 5765 5766 5766 5766 5765 5765 5765 5765 5765 5766 5767 5767 5767 5767 5768 5769 5769 5770
5680 5682 5686 5689 5690 5691 5693 5694 5698 5701 5703 5704 5705 5705 5706 5707 5707 5708 5710 5711 5713 5714 5715 5715 5716 5716 5718 5720 5721 5723 5725 5724 5724 5726 5728 5728 5729 5731 5732 5732 5733 5734 5735 5736 5737 5737 5738 5739 5741 5743 5745 5747 5748 5749 5751 5753 5754 5755 5756 5757 5757 5757 5758 5759 5759 5759 5759 5760 5760 5761 5761 5761 5761 5761 5762 5762 5762 5763 5763 5764 5764 5764 5765 5766 5767 5768
5676 5678 5682 5686 5688 5689 5690 5691 5693 5695 5697 5700 5702 5703 5703 5704 5705 5706 5707 5709 5711 5712 5712 5713 5714 5714 5714 5716 5718 5720 5722 5722 5722 5724 5725 5726 5727 5728 5729 5729 5730 5731 5733 5734 5735 5735 5736 5737 5738 5740 5742 5743 5745 5746 5747 5748 5750 5751 5752 5753 5753 5752 5752 5752 5753 5754 5755 5755 5756 5757 5757 5757 5757 5757 5758 5758 5758 5759 5760 5760 5761 5761 5762 5764 5765 5766
5672 5675 5678 5682 5685 5686 5686 5687 5688 5689 5692 5695 5696 5697 5699 5700 5701 5702 5704 5706 5707 5708 5710 5710 5711 5712 5712 5713 5713 5715 5718 5719 5719 5721 5722 5724 5724 5725 5726 5727 5728 5729 5730 5732 5733 5733 5734 5734 5736 5737 5738 5740 5742 5743 5743 5743 5744 5745 5747 5748 5747 5747 5747 5748 5749 5750 5750 5751 5753 5754 5754 5754 5754 5753 5753 5753 5754 5755 5756 5757 5758 5759 5761 5762 5763 5764
5669 5671 5674 5677 5680 5682 5683 5685 5686 5686 5689 5691 5691 5692 5693 5694 5695 5697 5700 5702 5704 5706 5707 5707 5709 5710 5710 5709 5710 5712 5714 5716 5716 5717 5719 5720 5721 5722 5723 5724 5725 5727 5728 5728 5729 5730 5731 5732 5734 5736 5737 5738 5739 5740 5740 5739 5740 5740 5742 5743 5743 5744 5745 5746 5746 5746 5746 5748 5750 5750 5750 5749 5748 5747 5747 5748 5750 5751 5753 5755 5756 5758 5759 5761 5762 5763
5667 5668 5670 5673 5676 5679 5681 5682 5683 5685 5686 5687 5688 5689 5689 5691 5693 5696 5697 5699 5701 5703 5704 5705 5707 5707 5707 5707 5708 5710 5713 5715 5715 5716 5716 5717 5718 5720 5721 5720 5721 5723 5725 5725 5725 5726 5728 5730 5732 5734 5735 5735 5736 5736 5736 5736 5737 5737 5738 5739 5740 5740 5741 5742 5742 5743 5744 5744 5746 5746 5746 5745 5743 5743 5744 5745 5747 5748 5750 5752 5754 5756 5757 5759 5760 5761
5664 5665 5667 5670 5672 5675 5678 5679 5680 5682 5683 5684 5685 5687 5688 5690 5692 5694 5694 5696 5698 5699 5700 5703 5704 5704 5706 5706 5706 5707 5711 5713 5714 5715 5715 5716 5716 5717 5717 5717 5717 5719 5721 5723 5723 5724 5725 5727 5729 5730 5730 5731 5731 5732 5732 5733 5734 5735 5737 5737 5737 5737 5737 5737 5738 5740 5741 5741 5742 5742 5743 5743 5743 5743 5744 5745 5746 5747 5749 5750 5751 5753 5755 5756 5758 5759
5662 5662 5664 5667 5669 5672 5675 5677 5679 5680 5681 5682 5682 5683 5686 5689 5690 5691 5692 5693 5695 5695 5696 5699 5702 5703 5704 5705 5704 5705 5707 5709 5711 5713 5714 5715 5715 5715 5715 5715 5715 5717 5718 5719 5720 5721 5722 5723 5724 5725 5726 5727 5728 5730 5730 5730 5731 5731 5732 5734 5735 5735 5735 5736 5737 5738 5739 5740 5740 5740 5740 5741 5741 5741 5742 5743 5745 5747 5748 5749 5750 5752 5753 5754 5755 5756
5659 5660 5661 5664 5667 5669 5672 5674 5676 5678 5679 5680 5680 5680 5684 5687 5688 5689 5690 5690 5692 5693 5693 5695 5699 5700 5701 5701 5702 5703 5705 5706 5708 5708 5710 5711 5712 5713 5713 5713 5714 5715 5714 5715 5717 5717 5719 5720 5721 5721 5723 5724 5725 5727 5728 5728 5728 5728 5728 5730 5731 5732 5733 5734 5736 5737 5738 5739 5739 5739 5739 5740 5739 5738 5739 5741 5743 5745 5746 5747 5749 5750 5751 5752 5752 5753
5656 5657 5659 5661 5664 5666 5668 5670 5673 5674 5676 5677 5678 5679 5681 5684 5685 5686 5687 5688 5689 5690 5691 5693 5696 5697 5697 5698 5700 5701 5703 5703 5704 5705 5706 5706 5707 5709 5711 5712 5712 5713 5712 5713 5714 5715 5716 5719 5720 5720 5722 5723 5723 5725 5726 5726 5726 5727 5727 5728 5729 5730 5730 5731 5733 5734 5735 5735 5735 5736 5737 5738 5737 5738 5738 5739 5741 5742 5744 5745 5746 5748 5749 5749 5750 5750
5653 5654 5656 5658 5660 5662 5664 5666 5668 5671 5673 5674 5675 5676 5677 5680 5682 5683 5684 5685 5686 5688 5689 5691 5693 5694 5695 5696 5697 5698 5700 5700 5702 5703 5703 5703 5704 5706 5708 5710 5711 5711 5712 5712 5712 5713 5715 5717 5718 5719 5720 5721 5722 5722 5723 5724 5725 5725 5726 5727 5728 5729 5729 5729 5731 5732 5733 5733 5731 5732 5734 5735 5736 5736 5737 5738 5739 5740 5741 5742 5744 5745 5746 5747 5747 5748
5650 5651 5653 5655 5657 5660 5661 5662 5664 5667 5670 5671 5671 5671 5673 5676 5678 5679 5681 5682 5684 5685 5686 5687 5690 5692 5694 5695 5695 5696 5697 5698 5699 5700 5701 5702 5703 5704 5705 5707 5708 5709 5710 5711 5711 5712 5713 5714 5715 5716 5717 5717 5718 5719 5720 5721 5722 5723 5725 5725 5726 5727 5727 5728 5729 5730 5732 5732 5731 5731 5732 5733 5734 5735 5736 5736 5737 5737 5738 5739 5741 5742 5743 5743 5744 5745
5648 5649 5651 5653 5654 5656 5658 5658 5660 5663 5665 5667 5667 5668 5670 5673 5674 5676 5678 5678 5680 5683 5683 5684 5687 5689 5691 5692 5693 5693 5694 5695 5697 5698 5698 5700 5701 5702 5703 5705 5705 5706 5707 5708 5709 5710 5712 5712 5713 5713 5714 5714 5714 5715 5716 5717 5718 5720 5721 5722 5723 5723 5724 5725 5726 5727 5729 5730 5731 5731 5731 5732 5733 5733 5733 5734 5734 5734 5735 5735 5737 5738 5739 5740 5741 5742
5645 5646 5648 5650 5652 5653 5654 5655 5657 5658 5661 5663 5664 5665 5667 5669 5671 5673 5674 5674 5676 5679 5680 5681 5683 5685 5687 5688 5689 5690 5691 5692 5694 5695 5696 5697 5698 5700 5701 5702 5703 5703 5704 5705 5705 5707 5708 5709 5710 5710 5710 5711 5712 5712 5713 5713 5715 5716 5717 5718 5719 5719 5720 5722 5723 5724 5725 5728 5730 5731 5730 5731 5732 5732 5732 5732 5732 5733 5733 5732 5732 5734 5735 5736 5737 5738
5642 5644 5646 5648 5649 5651 5652 5653 5654 5655 5657 5659 5660 5661 5663 5664 5666 5668 5670 5670 5672 5674 5675 5676 5678 5681 5682 5683 5685 5686 5687 5689 5691 5692 5693 5694 5695 5697 5699 5700 5701 5701 5701 5702 5702 5703 5704 5705 5705 5706 5707 5708 5709 5709 5709 5710 5712 5713 5713 5714 5715 5717 5718 5719 5720 5721 5723 5724 5727 5728 5728 5729 5730 5731 5731 5731 5730 5730 5730 5728 5729 5730 5731 5732 5733 5733
5639 5642 5644 5645 5647 5648 5649 5650 5651 5653 5654 5655 5657 5658 5659 5660 5661 5663 5665 5667 5669 5671 5672 5672 5673 5676 5678 5680 5681 5683 5684 5686 5688 5690 5690 5691 5693 5694 5696 5698 5699 5699 5699 5699 5699 5700 5701 5701 5702 5703 5703 5704 5705 5706 5706 5707 5709 5710 5711 5711 5713 5714 5715 5716 5717 5718 5718 5719 5721 5722 5722 5724 5725 5725 5726 5726 5725 5726 5726 5725 5725 5725 5726 5727 5727 5727
5637 5639 5641 5643 5644 5645 5646 5647 5648 5650 5651 5652 5654 5655 5656 5657 5658 5659 5661 5663 5665 5667 5667 5667 5669 5672 5674 5676 5677 5678 5680 5682 5684 5686 5686 5687 5689 5690 5692 5695 5696 5696 5696 5697 5697 5697 5698 5698 5698 5699 5700 5700 5701 5702 5703 5704 5705 5706 5707 5708 5710 5711 5711 5712 5712 5713 5714 5714 5715 5715 5715 5716 5717 5718 5719 5719 5720 5720 5721 5720 5720 5720 5720 5721 5721 5722
5634 5636 5638 5640 5641 5642 5643 5644 5646 5647 5648 5650 5651 5652 5653 5654 5654 5655 5657 5659 5661 5662 5662 5662 5665 5667 5670 5672 5673 5674 5676 5678 5679 5681 5682 5683 5684 5685 5687 5689 5691 5691 5692 5693 5693 5694 5694 5695 5695 5696 5697 5697 5697 5698 5699 5699 5700 5701 5702 5704 5706 5707 5707 5707 5708 5708 5709 5709 5709 5710 5710 5711 5711 5712 5713 5713 5713 5714 5715 5715 5715 5715 5715 5715 5716 5716
5632 5633 5635 5636 5638 5638 5639 5641 5642 5644 5645 5647 5648 5649 5650 5650 5650 5652 5653 5654 5656 5658 5658 5659 5661 5662 5664 5667 5668 5670 5672 5673 5674 5676 5677 5678 5679 5680 5681 5683 5685 5686 5687 5688 5689 5689 5690 5691 5692 5693 5694 5694 5694 5694 5694 5695 5696 5696 5697 5699 5701 5702 5702 5702 5702 5703 5704 5704 5705 5706 5707 5707 5707 5707 5707 5707 5707 5707 5708 5708 5708 5708 5709 5709 5710 5711
5629 5631 5632 5633 5634 5635 5635 5637 5638 5640 5642 5643 5645 5646 5646 5647 5648 5650 5650 5650 5652 5654 5655 5656 5657 5658 5659 5661 5663 5665 5667 5668 5670 5671 5672 5673 5674 5676 5677 5678 5680 5681 5682 5682 5684 5685 5686 5687 5688 5689 5690 5690 5690 5690 5690 5691 5692 5692 5693 5695 5696 5696 5696 5696 5697 5698 5698 5699 5699 5701 5701 5702 5702 5701 5701 5701 5701 5700 5701 5701 5701 5702 5702 5702 5702 5703
5625 5627 5629 5629 5630 5631 5632 5633 5635 5637 5638 5640 5641 5643 5643 5644 5645 5646 5645 5646 5649 5651 5652 5653 5653 5655 5656 5657 5659 5661 5663 5664 5665 5667 5668 5669 5670 5672 5673 5674 5675 5675 5676 5676 5678 5679 5680 5682 5683 5684 5685 5686 5686 5686 5686 5687 5687 5688 5689 5690 5691 5690 5690 5691 5692 5693 5694 5693 5694 5695 5695 5695 5695 5695 5695 5695 5694 5694 5694 5694 5694 5694 5693 5693 5693 5693
5623 5624 5625 5626 5627 5628 5629 5630 5631 5633 5635 5637 5638 5639 5640 5641 5641 5642 5643 5644 5646 5648 5649 5650 5650 5652 5653 5654 5655 5657 5659 5659 5660 5662 5663 5664 5665 5667 5668 5667 5668 5669 5669 5670 5671 5673 5674 5675 5677 5678 5679 5680 5681 5681 5682 5683 5683 5683 5684 5686 5686 5686 5686 5686 5687 5688 5688 5689 5689 5689 5689 5689 5689 5689 5689 5689 5689 5689 5688 5687 5687 5686 5686 5685 5685 5685
5620 5621 5622 5623 5623 5624 5626 5627 5628 5630 5631 5633 5634 5635 5636 5636 5637 5639 5641 5643 5644 5645 5646 5647 5648 5649 5649 5650 5652 5654 5655 5655 5656 5657 5657 5658 5659 5661 5661 5661 5662 5663 5664 5665 5666 5667 5668 5669 5671 5672 5673 5673 5674 5675 5676 5677 5677 5677 5679 5680 5681 5681 5681 5682 5682 5683 5683 5683 5683 5683 5684 5684 5684 5684 5684 5684 5684 5683 5683 5681 5681 5680 5679 5679 5678 5678
5618 5619 5620 5619 5619 5621 5623 5624 5625 5626 5628 5629 5630 5631 5631 5631 5633 5636 5638 5639 5641 5642 5643 5643 5644 5645 5645 5646 5647 5649 5651 5651 5651 5651 5652 5653 5654 5655 5656 5657 5657 5658 5659 5660 5661 5662 5662 5664 5665 5666 5666 5667 5668 5669 5669 5670 5671 5671 5673 5674 5674 5674 5675 5675 5676 5677 5677 5677 5677 5677 5678 5678 5678 5678 5679 5678 5678 5678 5677 5676 5675 5674 5673 5672 5672 5672
5615 5616 5617 5616 5617 5619 5619 5620 5622 5624 5624 5625 5626 5626 5627 5627 5629 5631 5633 5636 5637 5638 5638 5638 5639 5641 5641 5642 5643 5645 5646 5646 5647 5647 5648 5649 5650 5651 5652 5653 5653 5653 5653 5655 5656 5657 5657 5659 5660 5659 5660 5661 5662 5662 5662 5663 5664 5665 5666 5667 5667 5668 5668 5669 5669 5670 5670 5670 5670 5670 5671 5671 5671 5671 5671 5671 5671 5671 5670 5669 5668 5667 5666 5665 5665 5664
5611 5613 5614 5614 5615 5616 5616 5617 5620 5621 5621 5621 5622 5623 5623 5624 5625 5626 5628 5631 5633 5633 5634 5634 5634 5635 5637 5638 5639 5640 5641 5642 5642 5643 5644 5645 5646 5647 5647 5648 5649 5649 5649 5650 5652 5652 5653 5654 5654 5654 5655 5656 5656 5656 5657 5658 5658 5659 5660 5660 5661 5661 5662 5662 5662 5663 5662 5662 5662 5663 5663 5663 5663 5663 5663 5663 5663 5662 5661 5660 5659 5658 5657 5656 5655 5655
5608 5610 5611 5611 5612 5613 5613 5614 5617 5617 5617 5618 5619 5620 5620 5620 5621 5622 5623 5625 5626 5628 5629 5630 5630 5630 5632 5633 5634 5635 5636 5637 5638 5638 5639 5640 5641 5642 5642 5643 5644 5644 5644 5645 5647 5647 5648 5648 5647 5648 5650 5650 5650 5651 5651 5652 5653 5653 5653 5654 5654 5655 5655 5655 5655 5655 5655 5654 5655 5655 5654 5654 5654 5654 5654 5654 5653 5653 5652 5651 5650 5649 5648 5646 5644 5643
5604 5607 5607 5607 5609 5609 5609 5610 5612 5613 5613 5615 5616 5616 5616 5617 5618 5619 5620 5620 5621 5622 5624 5625 5626 5627 5627 5628 5629 5630 5630 5631 5632 5633 5634 5635 5636 5636 5637 5638 5639 5638 5638 5639 5641 5641 5641 5641 5641 5643 5643 5643 5643 5644 5645 5646 5646 5646 5647 5647 5647 5648 5648 5648 5648 5647 5647 5647 5647 5646 5646 5645 5645 5645 5644 5644 5643 5643 5642 5641 5640 5639 5638 5636 5634 5633
5601 5602 5603 5603 5604 5604 5604 5605 5606 5608 5610 5611 5612 5611 5612 5612 5613 5615 5616 5616 5616 5617 5618 5619 5620 5622 5623 5623 5624 5625 5626 5626 5627 5628 5629 5630 5630 5630 5631 5632 5633 5633 5633 5633 5635 5635 5635 5635 5636 5636 5637 5637 5637 5638 5638 5639 5639 5639 5640 5640 5641 5641 5641 5640 5640 5639 5638 5638 5637 5637 5636 5636 5635 5635 5634 5634 5633 5632 5631 5630 5629 5629 5628 5627 5625 5623
5598 5598 5599 5600 5600 5600 5600 5600 5601 5603 5604 5605 5606 5607 5607 5608 5609 5610 5611 5611 5611 5612 5612 5613 5615 5616 5617 5618 5619 5620 5621 5621 5623 5624 5625 5625 5624 5624 5625 5626 5627 5628 5628 5629 5629 5629 5628 5629 5629 5630 5630 5631 5631 5632 5632 5632 5632 5632 5633 5633 5633 5633 5633 5632 5631 5630 5629 5628 5628 5627 5626 5626 5625 5625 5624 5624 5623 5621 5620 5619 5618 5618 5617 5615 5613 5612
5595 5595 5596 5596 5595 5596 5596 5596 5597 5599 5599 5600 5601 5601 5602 5603 5604 5605 5606 5606 5605 5605 5606 5607 5609 5610 5611 5613 5614 5615 5615 5616 5617 5619 5620 5619 5618 5618 5619 5619 5620 5622 5623 5624 5624 5622 5621 5622 5623 5623 5624 5624 5624 5625 5625 5624 5624 5625 5625 5625 5625 5625 5624 5623 5622 5621 5620 5619 5618 5618 5617 5616 5615 5615 5614 5613 5612 5611 5610 5608 5607 5607 5606 5605 5602 5600
5593 5592 5593 5592 5592 5592 5592 5592 5593 5594 5594 5595 5596 5597 5597 5598 5598 5599 5600 5599 5599 5599 5600 5601 5602 5603 5604 5606 5607 5609 5610 5610 5610 5612 5612 5612 5612 5612 5611 5612 5613 5615 5616 5617 5617 5616 5615 5615 5616 5616 5617 5617 5618 5618 5617 5617 5617 5618 5618 5618 5618 5617 5617 5616 5615 5614 5612 5611 5611 5610 5609 5608 5606 5606 5605 5604 5603 5603 5601 5599 5597 5596 5596 5596 5594 5592